Tracking 28790 objects as of 19-Apr-2024
HD Live streaming from Space Station
objects crossing your sky now

SL-8 DEB

Track SL-8 DEB now!
10-day predictions


NORAD ID: 39838
Int'l Code: 1991-009DW
Perigee: 1,454.4 km
Apogee: 1,828.6 km
Inclination: 74.1 °
Period: 119.0 minutes
Semi major axis: 8012 km
RCS: 0.0192 m2 (small)
Launch date: February 12, 1991
Source: Commonwealth of Independent States (former USSR) (CIS)
Launch site: PLESETSK MISSILE AND SPACE COMPLEX (PKMTR)

Note: This is SATELLITE DEBRIS
Your satellite tracking list
Your tracking list is empty




NASA's NSSDC Master Catalog

Two Line Element Set (TLE):
1 39838U 91009DW  24106.66536752  .00000228  00000-0  24242-2 0  9991
2 39838  74.1138  99.7020 0233543 206.3710 152.5278 12.10458431192565
Source of the keplerian elements: AFSPC